Terug naar catalogus

ONEWEB-0584

ActiefCommunicatiePO
NORAD 54651·PAYLOAD·🇬🇧 United Kingdom

Gelanceerd Dec 8, 2022 vanaf Cape Canaveral Space Force Station

Loading…

Volgende Passages (komende 24 uur)

TLE

VersSource: CelesTrak SupGP

Epoch: Sep 14, 2026, 20:51 UTC

1 54651C 22166K   26257.86889307  .00000870  00000+0  21081-2 0  2574
2 54651  87.9269 226.1271 0002135  85.3760 300.7841 13.21823130    13

Volg ONEWEB-0584 in realtime met AllMySat

Download on the App Store